Reflectivity
-20 -20 -20 -20 -20 -20 -20 -20 -20 -20 -20 -20 -20 -20 -20 -20 -20 -20 -20 -20 -20 -20 -20 -16 13 8 -20 -20 -20 -20 -20 -20 -20 -20 -20 -20 -20 -20 -20 -20 -20 -20 -20 -20 -20 -20 -20 -20 -20
-20 -20 -20 -20 -20 -20 -20 -20 -20 -20 -20 -20 -20 -20 -20 -20 -20 -20 -20 -20 -20 -20 -20 5 -8 -20 -20 -20 -20 -20 -20 -20 -20 -20 -20 -20 -20 -20 -20 -20 -20 -20 -20 -20 -20 -20 -20 -20 -20
-20 -20 -20 -20 -20 -20 -20 -20 -20 -20 -20 -20 -20 -20 -20 -20 -20 -20 -20 -20 -20 -20 -20 -5 -20 -20 -20 -20 -20 -20 -20 -20 -20 -20 -20 -20 -20 -20 -20 -20 -20 -20 -20 -20 -20 -20 -20 -20 -20
-20 -20 -20 -20 -20 -20 -20 -20 -20 -20 -20 -20 -20 -20 -20 -20 -20 -20 -20 -20 -20 -20 9 7 -20 -20 -20 -20 -20 -20 -20 -20 -20 -20 -20 -20 -20 -20 -20 -20 -20 -20 -20 -20 -20 -20 -20 -20 -20
-20 -20 -20 -20 -20 -20 -20 -20 -20 -20 -20 -20 -3 -20 -20 -20 -20 -20 -20 -20 -20 -20 10 -20 -20 -20 -20 -20 -20 -20 -20 -20 -20 -20 -20 -20 -20 -20 -20 -20 -20 -20 -20 -20 -20 -20 -20 -20 -20
-20 -20 -20 -20 -20 -20 -20 -20 -20 -20 -20 -20 -6 -17 -20 -20 -20 -20 -20 -20 -20 -16 -10 -20 -20 -20 -20 -20 -20 -20 -20 -20 -20 -20 -20 -20 -20 -20 -20 -20 -20 -20 -20 -20 -20 -20 -20 -20 -20
-20 -20 -20 -20 -20 -20 -20 -20 -20 -20 -20 2 -19 18 12 -20 -20 -20 -20 -20 -20 -20 -20 -20 -20 -20 -20 -20 -20 -20 -20 -20 -20 -20 -20 -20 -20 -20 -20 -20 -20 -20 -20 -20 -20 -20 -20 -20 -20
-20 -20 -20 -20 -20 -20 -20 -20 -20 -20 3 4 13 30 -18 -20 -20 -20 -20 -20 -19 -20 -20 -20 -20 -20 -20 -20 -20 -20 -20 -20 -20 -20 -20 -20 -20 -20 -20 -20 -20 -20 -20 -20 -20 -20 -20 -20 -20
-20 -20 -20 -20 -20 -20 -20 -20 -20 -20 -18 -20 33 35 32 18 -20 -20 8 12 13 -20 -20 -20 -20 -20 -20 -20 -20 -20 -20 -20 -20 -20 -20 -20 -20 -20 -20 -20 -20 -20 -20 -20 -20 -20 -20 -20 -20
-20 -20 -20 -20 -20 -20 -20 -20 -20 -20 -20 4 8 43 42 -0 -14 -20 -1 7 3 -20 -20 -20 -20 -20 -20 -20 -20 -20 -20 -20 -20 -20 -20 -20 -20 -20 -20 -20 -20 -20 -20 -20 -20 -20 -20 -20 -20
-20 -20 -20 -20 -20 -20 -20 -20 24 -20 -0 26 30 45 44 37 12 -18 15 7 -17 -20 -20 -20 -20 -20 -20 -20 -20 -20 -20 -20 -20 -20 -20 -20 -20 -20 -20 -20 -20 -20 -20 -20 -20 -20 -20 -20 -20
-20 -20 -20 -20 -20 -20 -20 -20 -20 1 2 12 32 44 41 39 30 16 17 -0 -20 -20 -20 -20 -20 -20 -20 -20 -20 -20 -20 -20 -20 -20 -20 -20 -20 -20 -20 -20 -20 -20 -20 -20 -20 -20 -20 -20 -20
-20 -20 -20 -20 -20 -20 -20 -20 -20 6 13 24 35 40 44 31 34 31 -6 17 14 2 -16 -19 -18 3 -20 -20 -20 -20 -20 -20 -20 -20 -20 -20 -20 -20 -20 -20 -20 -20 -20 -20 -20 -20 -20 -20 -20
-20 -20 -20 -20 -20 -20 -20 -20 -20 -20 -10 6 22 26 20 15 16 28 29 26 19 11 -5 4 -20 -15 -11 -20 -20 -20 -20 -20 -20 -20 -20 -20 -20 -20 -20 -20 -20 -20 -20 -20 -20 -20 -20 -20 -20
-20 -20 -20 -20 -20 -20 -20 -20 -20 -20 -20 -18 1 12 -18 -20 10 12 24 28 1 4 -20 6 -20 -18 -7 -20 -20 -20 -20 -20 -20 -20 -20 -20 -20 -20 -20 -20 -20 -20 -20 -20 -20 -20 -20 -20 -20
-20 -20 -20 -20 -20 -20 -20 -20 -20 -20 -20 -20 -20 -15 7 -20 11 24 21 29 30 -18 -20 -2 -15 -20 -18 -1 -15 -20 -20 -20 -20 -20 -20 -20 -20 -20 -20 -20 -20 -20 -20 -20 -20 -20 -20 -20 -20
-20 -20 -20 -20 -20 -20 -20 -20 -20 -20 -20 -20 -20 -10 -17 -19 29 37 35 28 13 30 -10 -12 -20 -20 -20 -20 -14 -16 -20 -20 -20 -20 -20 -20 -20 -20 -20 -20 -20 -20 -20 -20 -20 -20 -20 -20 -20
-20 -20 -20 -20 -20 -20 -20 -20 -20 -20 -20 -20 -20 -20 -20 -20 -8 15 20 18 10 12 10 -2 -3 -20 -20 -20 -20 -19 -17 -15 -20 -20 -20 -20 -20 -20 -20 -20 -20 -20 -20 -20 -20 -20 -20 -20 -20
-20 -20 -20 -20 -20 -20 -20 -20 -20 -20 -20 -20 -20 -20 -20 -20 -20 0 6 -3 5 -19 -13 -20 -13 -6 -20 -10 -14 -20 -20 -15 -13 -0 -20 -20 -20 -20 -20 -20 -20 -20 -20 -20 -20 -20 -20 -20 -20
-20 -20 -20 -20 -20 -20 -20 -20 -20 -20 -20 -20 -20 -20 -20 -20 -20 -20 12 -8 -20 -20 -20 -20 -20 -20 -20 -20 -20 -20 -20 -20 -20 -20 -20 -20 -20 -20 -20 -20 -20 -20 -20 -20 -20 -20 -20 -20 -20
-20 -20 -20 -20 -20 -20 -20 -20 -20 -20 -20 -20 -20 -20 -20 -20 -20 -20 -20 -10 9 11 1 -20 -20 -20 -20 -4 -20 -18 -20 -20 -20 -20 -20 -20 -20 -20 -20 -20 -20 -20 -20 -20 -20 -20 -20 -20 -20
-20 -20 -20 -20 -20 -20 -20 -20 -20 -20 -20 -20 -20 -20 -20 -20 -20 -20 -20 -20 -1 6 -20 -20 -20 -20 -20 -20 -20 -20 -20 -20 -20 -20 -20 -20 -20 -20 -20 -20 -20 -20 -20 -20 -20 -20 -20 -20 -20
-20 -20 -20 -20 -20 -20 -20 -20 -20 -20 -20 -20 -20 -20 -20 -20 -20 -20 -20 -20 -15 1 4 -20 -20 -20 19 17 -20 -20 -20 -20 -20 -20 -20 -20 -20 -20 -20 -20 -20 -20 -20 -20 -20 -20 -20 -20 -20
-20 -20 -20 -20 -20 -20 -15 -20 -20 -20 -20 -20 -20 -20 -20 -20 -20 -20 -20 -20 -19 -2 12 3 -10 -20 -20 15 -20 -20 -20 -3 -20 -20 -20 -4 3 -19 -18 -20 -20 -20 -20 -20 -20 -20 -20 -20 -20
-20 -20 -20 -20 -19 -20 -20 -20 -20 -20 -20 -20 -20 -20 -20 -20 -20 -20 -20 -20 -20 -20 -20 3 -18 -6 -3 15 13 -20 -20 -4 -20 -20 -13 -20 -19 -20 -12 -20 -20 -20 -20 -12 -18 -20 -20 -20 -20
-20 -20 -20 -20 -20 -20 -20 -20 -20 -20 -20 -20 -20 -20 -20 -20 -20 -20 -20 -20 -20 -20 1 -16 -20 -12 -7 1 21 -14 15 21 -6 -20 8 -20 -7 -8 -20 -17 -7 -18 8 5 -19 -8 -8 -20 -20
-20 -20 -12 -20 -20 -20 -20 -20 -4 -8 -20 -20 -20 -20 -20 -20 -20 -20 -20 -20 -20 -20 -20 -20 -19 -16 17 -18 -9 19 15 24 9 19 10 13 -18 -9 -14 -20 -9 4 2 5 -15 -0 -13 -20 -20
-20 -20 -17 -20 -20 -20 -20 -20 -16 -6 -19 -20 -20 -20 -20 -20 -20 -20 -20 -20 -20 -20 -20 -20 4 -7 -20 -2 22 21 21 22 24 22 15 15 18 5 11 -19 -2 -20 2 -8 -19 -17 -20 -20 -16
-20 -20 -20 -20 -20 -20 -20 -20 -20 -3 7 -20 -20 -20 -20 -20 -20 -20 -20 -20 -20 -20 -20 -20 -20 -20 -20 -20 -14 32 7 9 19 20 17 20 23 17 -1 6 3 -7 -20 -20 -20 -20 -20 -16 12
-20 -20 -20 -20 -20 -20 -20 -20 -20 -20 -2 -6 -20 -20 -20 -20 -20 -20 -20 -20 -20 -20 -20 -20 -20 -20 -20 -20 -9 -3 16 22 3 -20 19 24 9 18 23 12 -19 4 -20 -15 8 3 8 5 -16
Wind_Speed
10 9 3 4 3 3 3 6 4 11 10 4 7 1 8 3 3 6 8 14 21 20 19 17 22 21 21 20 19 18 17 15 15 15 15 15 14 14 14 14 14 15 14 14 14 14 13 13 12
4 6 4 2 3 4 5 6 9 10 17 4 4 2 4 2 2 10 9 19 21 17 17 17 22 21 21 21 20 19 17 16 15 15 15 15 14 14 14 14 15 15 14 14 14 13 13 13 12
5 3 3 4 4 10 4 8 10 15 13 7 4 4 5 3 4 7 18 22 23 16 14 18 23 22 22 21 21 19 18 17 16 15 15 15 14 14 14 14 14 14 14 14 14 13 13 12 12
1 5 4 1 6 4 13 11 12 10 15 8 4 8 3 6 7 11 23 22 22 16 14 20 23 23 21 21 21 20 18 18 17 16 15 15 15 15 14 14 14 14 13 14 14 13 13 12 11
3 3 1 3 5 6 11 12 14 10 8 11 6 5 5 2 9 24 22 20 20 18 16 17 23 22 22 22 21 20 19 18 17 16 16 15 15 14 14 14 14 13 13 13 14 13 13 12 12
3 3 0 4 5 8 9 11 7 6 7 13 13 0 3 5 19 18 20 19 19 19 17 16 20 21 20 21 20 19 19 18 18 17 15 15 14 14 13 14 14 14 13 13 13 13 13 12 12
4 3 5 4 7 8 9 8 11 11 2 11 16 9 5 7 10 15 17 18 18 18 16 14 14 16 18 19 19 18 18 17 18 17 16 15 14 14 13 13 13 13 13 13 12 12 12 12 12
4 4 3 3 6 9 4 6 10 9 9 7 7 7 5 9 10 17 20 19 17 15 15 13 11 11 11 11 17 17 16 16 16 15 15 13 12 12 13 11 12 12 12 12 12 12 11 10 9
2 2 3 5 6 7 4 6 1 2 7 2 8 11 8 1 11 18 19 17 15 13 13 13 11 10 9 9 11 14 15 16 16 13 13 10 6 6 7 9 9 10 11 11 11 9 7 7 7
4 3 6 6 5 5 2 3 0 1 2 6 13 15 4 10 8 15 17 15 15 15 14 14 12 11 10 9 8 7 9 6 6 6 6 4 7 6 6 6 8 9 8 8 9 7 3 2 3
5 5 6 15 5 6 3 2 1 4 7 10 3 20 14 4 7 6 12 17 14 13 11 14 13 12 9 9 6 4 4 4 4 7 5 5 6 5 4 2 3 2 3 2 3 4 3 3 2
4 7 6 8 2 4 4 4 3 5 4 6 3 13 20 6 1 2 8 12 15 13 12 14 13 12 11 7 5 5 5 4 4 5 6 5 4 5 4 3 3 2 1 3 1 2 5 7 7
3 4 7 10 8 7 9 9 9 9 7 7 11 19 20 3 6 7 5 10 14 12 12 13 13 11 11 11 6 5 5 4 5 5 6 5 5 5 5 4 4 4 2 3 3 3 4 6 7
4 4 7 8 11 6 9 7 4 9 10 12 15 18 11 2 2 6 5 9 11 13 13 7 13 12 11 10 9 6 5 6 5 5 5 6 5 5 5 5 4 5 4 3 3 3 4 4 5
4 6 9 11 9 9 4 10 12 11 12 14 14 13 10 7 2 6 9 7 11 12 14 7 12 13 13 10 9 7 5 5 5 5 5 6 6 6 6 5 3 4 4 6 4 4 4 5 4
3 1 4 6 5 9 9 10 10 9 6 13 14 15 14 15 12 9 12 16 12 12 14 9 11 11 12 9 6 6 6 5 5 5 5 7 6 7 6 5 5 4 4 4 4 3 4 4 5
3 3 5 8 4 2 7 6 12 6 7 15 14 12 13 13 24 23 23 20 17 15 14 15 13 12 10 9 7 7 9 6 5 5 4 7 6 7 6 5 5 5 4 4 3 3 4 3 3
4 3 3 4 5 5 5 8 10 9 3 12 14 14 9 13 19 24 23 16 13 15 15 17 13 13 11 8 6 5 5 5 5 5 5 7 5 7 6 5 5 5 4 4 3 4 3 3 5
5 6 5 5 7 5 9 8 11 12 11 8 8 8 9 9 10 19 18 15 14 11 14 18 19 18 13 10 10 8 9 6 5 5 7 7 6 7 7 5 5 5 5 5 5 3 5 3 3
6 4 6 6 9 2 5 12 11 10 15 10 10 11 10 6 6 10 18 18 19 20 17 14 17 17 16 13 11 6 7 4 6 5 6 7 7 7 7 7 6 6 5 6 5 4 3 2 1
3 4 5 8 10 5 4 10 13 9 14 16 16 10 9 9 8 6 14 17 17 18 18 17 17 17 16 15 10 8 5 4 3 5 5 6 8 8 8 8 6 6 5 5 5 5 6 4 1
4 6 7 5 3 3 5 8 9 8 9 8 18 15 11 10 7 7 11 14 17 17 17 17 17 16 15 14 10 16 17 14 10 10 8 8 8 7 7 8 7 7 5 6 5 5 4 4 4
7 2 3 2 3 4 3 1 9 6 8 9 8 11 12 11 11 11 9 16 17 17 17 18 18 16 15 18 18 14 10 7 4 7 11 9 7 8 8 8 7 7 5 6 7 5 5 3 4
5 4 3 1 1 3 7 8 8 4 5 2 4 3 5 8 8 9 10 13 15 13 13 14 17 16 15 16 17 18 17 13 12 11 11 9 8 7 8 8 7 7 7 7 5 5 6 5 4
5 7 2 1 2 8 0 3 10 6 1 3 4 5 5 5 7 6 2 5 13 16 17 15 17 15 16 17 16 17 14 14 17 15 12 14 10 8 10 9 8 7 7 7 7 7 6 6 5
7 9 7 8 5 4 2 7 8 8 8 4 1 3 7 8 7 7 6 5 5 10 19 19 18 16 17 16 16 13 12 9 9 12 10 11 13 13 14 12 12 11 10 9 9 6 5 6 6
6 8 5 4 1 3 5 7 8 9 4 3 7 9 7 8 8 7 8 7 5 6 6 15 15 16 16 18 14 12 12 13 11 12 11 9 9 10 15 14 12 13 12 11 10 8 8 7 6
5 6 4 3 6 5 5 5 7 3 7 7 8 8 6 6 7 7 7 6 6 6 3 4 7 15 15 16 15 13 13 13 11 11 12 11 10 12 14 14 13 11 10 11 10 8 9 10 6
6 4 5 4 5 6 3 7 5 7 6 9 8 6 6 4 2 3 4 5 2 4 5 4 6 9 11 12 12 13 12 11 11 11 11 12 12 12 14 15 15 14 13 10 9 9 10 10 9
13 13 10 5 5 4 4 7 2 6 9 8 7 6 2 2 3 4 4 5 5 4 5 6 4 6 9 12 12 13 12 12 12 12 12 13 15 14 15 15 15 14 13 12 12 12 11 11 11
Wind_Direction
321 309 312 34 48 97 228 244 250 279 295 235 242 190 132 71 154 197 137 122 132 142 147 150 142 134 128 130 128 123 122 121 119 116 112 109 106 105 103 101 98 96 92 89 86 83 79 76 72
317 312 30 65 146 235 252 239 264 247 255 314 315 23 63 107 87 116 107 138 137 141 144 143 136 136 132 134 130 127 127 125 122 116 113 112 108 105 102 100 97 94 91 89 88 86 83 79 76
302 256 82 150 199 227 232 271 254 269 287 235 211 67 96 152 109 137 130 136 134 140 142 138 139 130 139 135 132 131 131 129 123 119 116 113 109 107 103 98 97 95 93 93 90 88 88 85 84
328 11 2 208 263 269 234 258 270 305 300 300 193 92 45 235 156 129 136 132 130 138 137 138 135 137 140 135 134 134 134 130 126 123 120 116 114 111 106 101 99 94 94 93 91 89 86 82 82
45 77 220 235 253 257 283 265 267 302 323 304 310 178 107 34 118 133 136 136 134 131 138 136 137 140 140 137 136 137 135 132 128 125 122 119 115 112 109 106 100 97 94 93 91 89 86 83 82
16 102 76 245 253 254 261 270 273 262 340 313 351 98 148 147 133 137 135 134 131 133 135 138 139 141 141 138 138 138 137 134 130 126 123 119 115 112 106 102 97 95 92 90 88 88 86 85 88
120 94 226 260 281 290 268 264 277 260 5 315 345 280 195 151 143 131 132 126 131 134 134 136 139 140 139 137 137 137 137 134 131 128 124 117 113 108 104 100 98 94 92 87 83 83 82 85 84
133 120 281 262 275 278 319 316 341 248 221 11 9 257 224 188 143 113 125 128 130 133 131 135 135 134 133 136 135 135 133 131 129 119 114 109 103 100 99 89 95 96 95 94 90 85 87 89 80
88 46 261 254 252 262 325 29 46 315 303 188 325 312 287 117 132 113 126 129 130 134 134 132 131 127 123 127 129 127 127 120 119 124 128 119 105 100 95 100 96 98 101 104 106 95 80 70 57
123 182 233 229 309 277 239 110 125 268 258 293 297 268 312 69 66 125 138 138 141 143 144 141 138 137 138 133 120 117 124 122 129 142 127 110 123 130 120 119 115 107 108 114 113 119 128 349 20
203 213 251 274 222 259 319 333 164 172 197 217 175 299 333 132 76 83 143 143 144 145 146 149 147 147 145 133 130 134 140 134 146 153 149 136 133 124 122 114 89 90 102 20 35 83 84 104 106
226 255 241 286 225 202 186 156 256 225 254 71 259 300 306 346 8 181 106 139 144 152 149 153 155 149 140 137 145 150 150 149 157 162 170 150 140 134 143 157 147 144 137 99 106 58 78 87 82
234 267 289 282 303 277 142 216 212 197 218 173 208 265 255 101 325 255 124 151 146 153 157 163 154 149 149 146 155 156 159 159 172 155 161 153 145 148 152 147 133 117 117 93 82 68 83 85 87
285 284 295 294 291 276 281 259 195 226 193 210 194 251 242 183 41 281 248 166 177 160 163 149 155 152 148 156 159 162 154 156 146 154 161 155 142 142 132 128 121 116 110 103 118 110 98 104 99
302 326 307 259 249 254 231 274 264 269 177 213 209 234 228 179 43 257 248 221 177 178 167 154 150 149 151 151 157 150 151 147 143 155 152 154 146 145 128 126 127 132 122 116 95 63 78 84 87
287 357 301 276 260 253 151 267 274 259 237 217 225 227 227 192 172 226 236 241 204 173 171 154 154 150 151 143 152 145 144 148 146 154 146 138 144 133 126 127 136 146 118 111 101 109 72 87 99
265 220 224 313 220 160 163 255 273 287 237 228 225 231 209 202 179 191 220 209 185 178 176 163 158 155 150 144 149 147 151 150 152 146 148 147 143 137 130 132 141 131 117 115 130 100 113 103 87
205 252 274 264 306 322 255 252 275 291 278 253 225 233 199 196 194 199 206 191 182 181 180 167 161 160 151 143 138 139 148 145 146 153 154 152 153 146 132 139 138 130 119 113 102 116 91 131 131
280 276 276 272 264 236 246 262 268 282 288 270 247 228 240 220 214 185 190 176 165 181 189 181 168 168 156 159 161 167 169 160 155 160 162 158 160 150 144 143 141 141 137 152 142 112 116 67 116
230 293 295 291 284 279 298 283 265 248 261 252 245 245 224 219 216 190 184 177 176 178 189 191 186 176 170 172 168 165 161 161 162 155 163 161 159 150 148 146 152 154 136 141 145 136 118 111 136
232 223 258 259 293 309 281 289 263 267 242 253 261 249 258 213 223 217 192 181 178 186 185 183 193 187 179 178 151 130 106 90 124 168 160 170 163 163 150 156 150 154 142 155 153 151 139 142 112
268 231 246 257 20 250 78 290 298 278 259 223 247 231 236 230 203 227 188 190 185 189 187 190 185 185 181 170 181 178 175 172 184 176 164 162 161 161 157 158 152 153 144 148 160 160 154 135 152
222 187 102 21 331 345 230 162 270 294 289 277 247 224 220 230 215 210 197 190 193 188 185 188 189 184 189 177 177 179 187 185 163 159 160 160 160 160 164 159 153 149 147 148 147 144 149 140 143
134 94 34 336 124 314 210 175 279 225 247 335 19 78 315 270 258 235 207 186 188 188 189 190 189 186 187 192 180 189 183 172 163 173 171 171 169 162 160 156 152 148 144 143 143 133 130 133 114
121 94 343 281 189 234 314 137 245 243 323 126 116 114 86 62 51 67 227 219 187 181 184 187 190 189 187 192 191 185 192 182 176 177 181 167 168 173 170 153 156 155 153 146 136 130 124 132 124
180 156 166 200 199 253 335 231 255 233 200 148 100 54 56 52 50 37 22 75 185 199 183 188 191 189 186 190 195 191 185 187 192 174 183 185 179 177 166 162 158 154 149 144 135 126 120 121 121
199 196 169 79 5 95 248 275 293 257 305 72 73 78 51 46 49 43 18 28 39 98 211 188 188 196 192 191 188 193 185 186 184 181 185 189 198 177 164 160 158 158 150 150 143 140 128 127 119
148 161 132 185 197 222 256 260 232 130 145 127 104 111 79 45 29 21 29 23 10 15 12 221 194 193 193 192 190 190 192 194 184 175 178 186 182 180 172 155 154 151 148 144 143 138 137 131 123
172 212 217 159 172 170 185 253 224 182 164 137 135 140 136 128 49 11 338 331 7 339 342 321 208 191 178 187 192 185 183 187 175 176 176 179 178 180 176 160 152 152 149 149 138 138 136 125 126
212 194 186 154 198 220 149 266 169 141 125 127 144 163 193 183 228 258 268 294 313 320 316 309 279 201 186 180 176 189 173 177 174 174 181 181 180 180 181 164 155 152 150 148 149 143 141 136 128